Погода в Алексеевка 2-я

Россия / Липецкая область     52°05′37″N   38°00′39″E
темп.,
°C
ветер,
м/с
пор.,
м/с
влажн.,
%
обл.,
%
осадки,
мм/ч
давл.,
гПа
погр.,
м
14 апреля, ср
ср1400:00+12ююв388569 0.0 1022216
03:00+10ююв3492100 0.0 102185
06:00+9юв22925 0.0 102028
09:00+14вюв3471100 0.0 1020483
12:00+18юв4634100 0.0 10181053
15:00+19юв562997 0.0 10172229
18:00+17юв61033100 0.0 1016379
21:00+13вюв234377 0.0 101622
15 апреля, чт
чт1500:00+12в2347100 0.0 101532
03:00+12вюв4959100 0.0 1015236
06:00+12вюв2258100 0.0 101431
09:00+13всв4959100 0.0 1014383
12:00+16в564772 0.0 10141095
15:00+17юв4647100 0.1 10121696
18:00+15ю366192 0.1 1013255
21:00+12ююв117261 0.6 101410
16 апреля, пт
пт1600:00+11ююв1172100 0.1 101411
03:00+9ююз228045 0.1 101522
06:00+10вюв3481100 0.3 101574
09:00+12ююв467482 0.4 1016520
12:00+16ююв5751100 0.0 10161433
15:00+17ююв584142 0.1 10162377
18:00+15ююз364896 0.0 1017280
21:00+10з226449 0.0 101826
17 апреля, сб
сб1700:00+10сз2264100 0.0 101945
03:00+9ссв4773100 0.0 1019149
06:00+9вюв2294100 0.8 101836
09:00+11всв568198 1.8 1018609
12:00+13всв61072100 0.2 10191203
15:00+14в81368100 2.5 10181285
18:00+10ююв4785100 1.4 1020504
21:00+9в4791100 5.2 1021623
18 апреля, вс
вс1800:00+7ююв368997 0.1 1023449
03:00+5ю24935 0.1 102484
06:00+5ссз119168 0.0 102410
09:00+9всв337071 0.0 1025597
12:00+12вюв345587 0.1 10241368
15:00+10всв6673100 0.9 1025754
18:00+9всв6887100 1.3 1025635
21:00+7всв5891100 5.1 1025363